Location: Caltech
(34.1382°N, 118.1253°W)
Time: 07:53:59
(UTC-07:00)

Cosmos 2360 Rocket - Visible Passes

Search period start: 25 May 2016 00:00
Search period end: 04 June 2016 00:00
Orbit: 836 x 844 km, 71.0° (Epoch: 25 May)

Date Brightness Start Highest point End Pass type
(mag) Time Alt. Az. Time Alt. Az. Time Alt. Az.
25 May 5.2 03:07:31 10° NNE 03:09:56 13° NE 03:12:20 10° E visible
25 May 2.2 04:48:56 10° NNW 04:54:35 82° WSW 05:00:12 10° SSE visible
26 May 5.2 02:52:13 10° NNE 02:54:13 12° NE 02:56:13 10° ENE visible
26 May 2.2 04:33:17 10° NNW 04:38:56 87° WSW 04:44:34 10° SSE visible
27 May 5.2 02:37:01 10° NE 02:38:30 11° NE 02:39:58 10° ENE visible
27 May 2.2 04:17:37 10° NNW 04:23:16 87° ENE 04:28:54 10° SSE visible
28 May 5.3 02:22:15 10° NE 02:22:46 10° NE 02:23:17 10° ENE visible
28 May 2.2 04:01:57 10° NNW 04:07:37 82° ENE 04:13:15 10° SSE visible
29 May 2.3 03:46:18 10° NNW 03:51:57 76° ENE 03:57:34 10° SSE visible
30 May 2.4 03:30:40 10° NNW 03:36:18 71° ENE 03:41:54 10° SSE visible
31 May 2.5 03:15:01 10° NNW 03:20:38 66° ENE 03:25:45 12° SSE visible
31 May 3.9 05:01:27 10° WNW 05:03:56 13° W 05:06:27 10° SW visible
01 Jun 2.6 02:59:23 10° NNW 03:04:58 62° ENE 03:08:30 23° SE visible
01 Jun 3.8 04:45:28 10° WNW 04:48:20 14° W 04:50:09 12° WSW visible
02 Jun 2.7 02:43:45 10° NNW 02:49:18 57° ENE 02:51:44 32° SE visible
02 Jun 3.7 04:29:32 10° WNW 04:32:43 15° W 04:33:24 15° WSW visible
03 Jun 2.8 02:28:08 10° N 02:33:38 53° ENE 02:35:15 40° ESE visible
03 Jun 3.7 04:13:38 10° WNW 04:16:57 17° W 04:16:57 17° W visible
